Regional Weather Roundup
Issued by NWS Austin/San Antonio, TX

Current Version | Previous Version | Text Only | Print | Product List | Glossary On
Versions: 1 2 3 4 5 6 7 8 9 10 11 12 13 14 15 16 17 18 19 20 21 22 23 24 25 26 27 28 29 30 31 32 33 34 35 36 37 38 39 40 41 42 43 44 45 46 47 48 49 50
000
ASUS44 KEWX 040011
RWREWX
SOUTH TEXAS REGIONAL WEATHER ROUNDUP
NATIONAL WEATHER SERVICE AUSTIN/SAN ANTONIO TX
700 PM CDT MON AUG 03 2020

NOTE: "FAIR" INDICATED FEW OR NO CLOUDS BELOW 12,000 FEET WITH NO
SIGNIFICANT WEATHER AND/OR OBSTRUCTIONS TO VISIBILITY.

* - THESE STATIONS ARE NOT NWS OR FAA STATIONS...AND ARE NOT SUBJECT
    TO NWS AND FAA QUALITY CONTROL.

TXZ171-172-183>190-040100-
TEXAS HILL COUNTRY AND EDWARDS PLATEAU

CITY           SKY/WX    TMP DP  RH WIND       PRES   REMARKS
JUNCTION       PTSUNNY   88  64  44 SE8       30.04F
6HR MIN TEMP:  85; 6HR MAX TEMP:  95; 6HR PCP: TRACE;

*LLANO         CLOUDY    81  68  65 SE5       30.02S
BURNET         CLOUDY    77  70  79 VRB3      30.05F
6HR MIN TEMP:  73; 6HR MAX TEMP:  98; 6HR PCP:  0.16;

*HORSESHOE BAY CLOUDY    79  70  73 S3        30.03F
*LAGO VISTA    CLOUDY    74  72  93 W9        30.03F
6HR MIN TEMP:  72; 6HR MAX TEMP:  99; 6HR PCP:  0.23;

*KERRVILLE     CLOUDY    79  68  68 SE6       30.07S
6HR MIN TEMP:  76; 6HR MAX TEMP:  99;

*FREDERICKSBRG CLOUDY    76  67  73 CALM      30.06F
6HR MIN TEMP:  72; 6HR MAX TEMP:  95; 6HR PCP:  0.03;

*ROCKSPRINGS   PTSUNNY   81  64  57 E8        30.10F
*BOERNE        CLOUDY    72  70  94 W3        30.08F
*CASTROVILLE   TSTM      76  73  92 N17G28    30.04R
HONDO          LGT RAIN  77  68  73 N18       30.01R
6HR MIN TEMP:  77; 6HR MAX TEMP:  98; 6HR PCP: TRACE;

*UVALDE        CLOUDY    82  66  58 NE20      29.99S
6HR MIN TEMP:  82; 6HR MAX TEMP: 100;

DEL RIO        PTSUNNY  101  59  24 S12       29.90F HX 101
6HR MIN TEMP:  99; 6HR MAX TEMP: 104;

*LAUGHLIN AFB  CLOUDY    98  59  26 SE16      29.92F HX  98
6HR MIN TEMP:  97; 6HR MAX TEMP: 101;

*SPOFFORD      NOT AVBL
*EAGLE PASS    MOSUNNY  100  55  22 S6G14     29.92F HX  99
CARRIZO SPRGS  SUNNY     97  61  30 SE6       29.92S HX  97
$$

TXZ173-191>194-202-209-217>225-228-040100-
CENTRAL AND SOUTH CENTRAL TEXAS

CITY           SKY/WX    TMP DP  RH WIND       PRES   REMARKS
GEORGETOWN     CLOUDY    77  72  84 N3        30.02F
6HR MIN TEMP:  75; 6HR MAX TEMP: 101; 6HR PCP:  0.03;

*TAYLOR        CLOUDY    79  71  77 NW10      29.99F
6HR MIN TEMP:  77; 6HR MAX TEMP:  99;

AUSTIN/BERGSTM CLOUDY    81  71  71 W5        29.99R
6HR MIN TEMP:  80; 6HR MAX TEMP: 101; 6HR PCP: TRACE;

AUSTIN/MABRY   CLOUDY    79  69  71 NW7       30.00R
6HR MIN TEMP:  79; 6HR MAX TEMP: 103; 6HR PCP: TRACE;

*PFLUGERVILLE  NOT AVBL
SAN MARCOS     LGT RAIN  79  69  71 NW14G22   29.99R
6HR MIN TEMP:  79; 6HR MAX TEMP: 101; 6HR PCP: TRACE;

NEW BRAUNFELS  LGT RAIN  78  69  73 W13       29.99R
6HR MIN TEMP:  77; 6HR MAX TEMP: 104; 6HR PCP:  0.06;

*RANDOLPH AFB  TSTM      73  71  93 NW7       30.04R
6HR MIN TEMP:  73; 6HR MAX TEMP: 101; 6HR PCP:  1.01;

*SEGUIN        CLOUDY    81  66  61 N16G23    30.04R
SAN ANTONIO    TSTM      75  70  84 W5        30.06R
6HR MIN TEMP:  74; 6HR MAX TEMP: 100; 6HR PCP:  0.48;

STINSON FIELD  TSTM      73  73 100 N9G20     30.03R
6HR MIN TEMP:  73; 6HR MAX TEMP:  99; 6HR PCP:  0.05;

*KELLY FIELD   TSTM      75  72  88 N10       30.03F
6HR MIN TEMP:  74; 6HR MAX TEMP: 101; 6HR PCP:  0.26;

*PLEASANTON    CLOUDY    96  65  36 CALM      29.94R HX  99
6HR MIN TEMP:  94; 6HR MAX TEMP: 101;

*KENEDY        CLOUDY    95  65  36 E12       29.94S HX  97
6HR MIN TEMP:  93; 6HR MAX TEMP:  99;

*LA GRANGE     CLOUDY    95  65  37 SE5       29.92F HX  97
6HR MIN TEMP:  95; 6HR MAX TEMP: 100;

*GIDDINGS      CLOUDY    95  64  35 E6        29.95F HX  97
6HR MIN TEMP:  95; 6HR MAX TEMP: 100;

*GONZALES      CLOUDY    94  65  38 SE7       29.93S HX  96
6HR MIN TEMP:  94; 6HR MAX TEMP: 101;

$$

TXZ163>164-176>182-195>201-210>213-226-227-235-040100-
SOUTHEAST TEXAS

CITY           SKY/WX    TMP DP  RH WIND       PRES   REMARKS
COLLEGE STN    CLOUDY    93  64  38 N5        29.94F HX  94
6HR MIN TEMP:  93; 6HR MAX TEMP:  97;

*BRYAN         CLOUDY    92  64  39 CALM      29.95F HX  93
6HR MIN TEMP:  92; 6HR MAX TEMP:  97;

*CALDWELL      CLOUDY    91  67  46 SE5       29.95S THUNDER HX  94
6HR MIN TEMP:  91; 6HR MAX TEMP:  97;

*CROCKETT      NOT AVBL
*BRENHAM       CLOUDY    92  75  57 CALM      29.95S HX 102
6HR MIN TEMP:  92; 6HR MAX TEMP:  96;

HUNTSVILLE     MOSUNNY   93  64  38 CALM      29.94F HX  94
6HR MIN TEMP:  92; 6HR MAX TEMP:  96;

CONROE         SUNNY     90  72  55 E5        29.94F HX  97
6HR MIN TEMP:  90; 6HR MAX TEMP:  99;

HOUSTON BUSH   MOSUNNY   93  70  46 E9        29.93S HX  99
6HR MIN TEMP:  92; 6HR MAX TEMP:  98;

HOUSTON HOBBY  MOSUNNY   92  72  51 S9        29.93S HX  99
6HR MIN TEMP:  92; 6HR MAX TEMP:  97;

*HOUSTON SW AP PTSUNNY   87  75  67 SE3       29.95S HX  97
6HR MIN TEMP:  87; 6HR MAX TEMP:  92;

PEARLAND       SUNNY     92  72  51 S8        29.95F HX  99
6HR MIN TEMP:  92; 6HR MAX TEMP:  96;

HOUSTON HOOKS  SUNNY     92  66  42 N3        29.93S HX  94
6HR MIN TEMP:  91; 6HR MAX TEMP:  96;

ELLINGTON FLD  MOSUNNY   90  75  62 S9        29.93S HX 100
SUGAR LAND     SUNNY     91  74  57 SW3       29.93S HX 100
6HR MIN TEMP:  90; 6HR MAX TEMP:  96;

*HOUSTON EXEC  SUNNY     91  72  52 CALM      29.95S HX  98
*CLEVELAND MUN SUNNY     87  73  63 CALM      29.95S HX  94
6HR MIN TEMP:  87; 6HR MAX TEMP:  96;

*WHARTON       CLOUDY    90  69  48 S5        29.95S HX  94
6HR MIN TEMP:  89; 6HR MAX TEMP:  93;

*COLUMBUS      FAIR      90  69  49 S3        29.95F HX  94
6HR MIN TEMP:  90; 6HR MAX TEMP:  94;

*EAGLE LAKE    CLOUDY    92  72  51 SE6       29.94F HX  99
6HR MIN TEMP:  91; 6HR MAX TEMP:  96;

$$

TXZ214>216-236>238-040100-
THE UPPER TEXAS COAST

CITY           SKY/WX    TMP DP  RH WIND       PRES   REMARKS
*ORANGE        SUNNY     92  66  42 N3        29.95S HX  94
6HR MIN TEMP:  91; 6HR MAX TEMP:  95;

PORT ARTHUR    SUNNY     89  73  59 S8        29.93R HX  97
6HR MIN TEMP:  88; 6HR MAX TEMP:  96;

GALVESTON      SUNNY     89  72  56 S10       29.96S HX  96
6HR MIN TEMP:  89; 6HR MAX TEMP:  93;

ANGLETON       SUNNY     88  73  61 S7        29.95S HX  95
6HR MIN TEMP:  88; 6HR MAX TEMP:  95;

*BAY CITY      SUNNY     88  76  67 S9        29.95S HX  99
PALACIOS       SUNNY     89  76  65 S9        29.94F HX 100
6HR MIN TEMP:  88; 6HR MAX TEMP:  92;

$$

TXZ229>234-239>247-040100-
TEXAS COASTAL BEND AND RIO GRANDE PLAINS

CITY           SKY/WX    TMP DP  RH WIND       PRES   REMARKS
VICTORIA       SUNNY     94  69  44 E7        29.95S HX  99
6HR MIN TEMP:  91; 6HR MAX TEMP:  98;

*BEEVILLE      SUNNY     93  73  51 SE10      29.94R HX 102
6HR MIN TEMP:  89; 6HR MAX TEMP:  95;

ROCKPORT       SUNNY     89  73  59 SE9       29.95S HX  97
6HR MIN TEMP:  89; 6HR MAX TEMP:  95;

*PORT ARANSAS  SUNNY     87  76  69 SE10      29.97S HX  98
6HR MIN TEMP:  87; 6HR MAX TEMP:  90;

*PORT LAVACA   NOT AVBL
*INGLESIDE     SUNNY     88  77  69 S9        29.95S HX 101
CORPUS CHRISTI MOSUNNY   90  72  55 SE10      29.95S HX  97
6HR MIN TEMP:  90; 6HR MAX TEMP:  97;

CORPUS NAS     MOSUNNY   87  76  69 SE12      29.95S HX  97
6HR MIN TEMP:  87; 6HR MAX TEMP:  93;

*ROBSTOWN      SUNNY     92  70  48 SE10      29.95S HX  97
6HR MIN TEMP:  92; 6HR MAX TEMP:  98;

ALICE            N/A     92  72  51 MISG      29.94R HX  99
6HR MIN TEMP:  92; 6HR MAX TEMP:  99;

KINGSVILLE NAS MOSUNNY   90  72  55 SE12      29.95R HX  97
6HR MIN TEMP:  90; 6HR MAX TEMP:  99;

COTULLA        SUNNY     97  65  34 S7        29.93S HX  99
6HR MIN TEMP:  94; 6HR MAX TEMP: 100;

LAREDO         SUNNY     98  61  29 SE8



USA.gov is the U.S. government's official web portal to all federal, state and local government web resources and services.